• MPC Preparation (Info)

  • MPEC 2023-G03 : 2023 FP13

    The following Minor Planet Electronic Circular may be linked-to from your own Web pages, but must not otherwise be redistributed electronically.

    A form allowing access to any MPEC is at the bottom of this page.


    Read MPEC 2023-G02 Read MPEC 2023-G04


    M.P.E.C. 2023-G03                                 Issued 2023 April 1, 08:52 UT
    
         The Minor Planet Electronic Circulars contain information on unusual
             minor planets, routine data on comets and natural satellites,
             and occasional editorial announcements.  They are published
        on behalf of Division F of the International Astronomical Union by the
              Minor Planet Center, Smithsonian Astrophysical Observatory,
                              Cambridge, MA 02138, U.S.A.
    			  
                 Prepared using the Tamkin Foundation Computer Network
    
                                  MPC@CFA.HARVARD.EDU
                URL https://www.minorplanetcenter.net/    ISSN 1523-6714
    
                                    2023 FP13                                
    
    
    Observations:
         K23F13P  C2023 03 25.35220 12 51 16.34 +21 04 34.3          20.6 GVEG003703
         K23F13P  C2023 03 25.36263 12 51 26.02 +21 07 25.4          20.8 GVEG003703
         K23F13P*1C2023 03 29.40064216 21 10.820+50 53 14.50               VEG003G96
         K23F13P 1C2023 03 29.40590416 21 48.380+50 55 02.30         19.80GVEG003G96
         K23F13P 1C2023 03 29.41117616 22 25.850+50 56 49.70         19.90GVEG003G96
         K23F13P KC2023 03 29.44578816 26 33.608+51 08 09.49         19.13GVEG003I52
         K23F13P KC2023 03 29.44624316 26 36.884+51 08 17.84         18.87GVEG003I52
         K23F13P KC2023 03 29.44670716 26 40.236+51 08 26.66         19.17GVEG003I52
         K23F13P KC2023 03 29.44717316 26 43.573+51 08 35.41         18.84GVEG003I52
         K23F13P KC2023 03 29.51191016 34 33.445+51 27 46.51         19.18GVEG003I52
         K23F13P KC2023 03 29.51236016 34 36.782+51 27 53.68         19.22GVEG003I52
         K23F13P KC2023 03 29.51281216 34 40.084+51 28 01.24         19.28GVEG003I52
         K23F13P hC2023 03 29.95689417 33 11.70 +52 36 24.7          18.8 GVEG003L01
         K23F13P hC2023 03 29.95803317 33 20.68 +52 36 29.8          18.9 GVEG003L01
         K23F13P hC2023 03 29.95917017 33 29.70 +52 36 32.9          19.2 GVEG003L01
         K23F13P hC2023 03 29.96030417 33 38.76 +52 36 38.0          19.3 GVEG003L01
         K23F13P KC2023 03 30.34898618 24 04.58 +52 13 11.6          19.3 VVEG003H21
         K23F13P KC2023 03 30.35130118 24 21.66 +52 12 51.2          19.5 VVEG003H21
         K23F13P KC2023 03 30.35323018 24 35.93 +52 12 33.5                VEG003H21
         K23F13P KC2023 03 30.35515918 24 50.15 +52 12 16.1          19.6 VVEG003H21
         K23F13P KC2023 03 30.35708818 25 04.35 +52 11 58.9          19.8 VVEG003H21
    
    Observer details:
    703 Catalina Sky Survey.  Observer K. W. Wierzchos.  Measurers E. J.
        Christensen, B. Gray, D. Rankin, F. C. Shelly.  0.68-m Schmidt + 10K CCD.
    G96 Mt. Lemmon Survey.  Observer G. J. Leonard.  Measurers E. J. Christensen,
        D. Fay, J. B. Fazekas, D. C. Fuls, A. R. Gibbs, A. D. Grauer, H. Groeller,
        J. K. Hogan, R. A. Kowalski, S. M. Larson, G. J. Leonard, D. Rankin, R. L.
        Seaman, A. Serrano, F. C. Shelly, K. W. Wierzchos.  1.5-m reflector + 10K
        CCD.
    H21 Astronomical Research Observatory, Westfield.  Observer R. Holmes.
        Measurers T. Linder, R. Holmes, L. Horn.  0.76-m f/3.0 astrograph + CCD.
    I52 Steward Observatory, Mt. Lemmon Station.  Observer J. B. Fazekas.
        Measurers E. J. Christensen, D. Fay, J. B. Fazekas, D. C. Fuls, A. R.
        Gibbs, A. D. Grauer, H. Groeller, J. K. Hogan, R. A. Kowalski, S. M.
        Larson, G. J. Leonard, D. Rankin, R. L. Seaman, A. Serrano, F. C. Shelly,
        K. W. Wierzchos.  1.0-m prime focus + CCD.
    L01 Visnjan Observatory, Tican.  Observer K. Korlevic.  1.0-m f/2.9 reflector
        + CCD.
    
    Orbital elements:
    2023 FP13                                                Earth MOID = 0.0218 AU
    Epoch 2023 Feb. 25.0 TT = JDT 2460000.5                 Veres                   
    M 326.86071              (2000.0)            P               Q                  
    n   0.43363260     Peri.   81.95938     -0.32282613     +0.94638222             
    a   1.7287072      Node   169.18367     -0.89159812     -0.29983580             
    e   0.5274591      Incl.    3.66613     -0.31754699     -0.12024638             
    P   2.27           H   25.15          G   0.15           U   7                  
    Residuals in seconds of arc
    230325 703  0.9-  0.3-    230329 I52  0.2+  0.0     230329 L01  0.2-  0.6-
    230325 703  0.9+  0.4+    230329 I52  0.1+  0.1-    230329 L01  0.6+  0.4+
    230329 G96  0.7-  0.0     230329 I52  0.2-  0.5+    230330 H21  0.0   0.4+
    230329 G96  0.6+  0.2-    230329 I52  0.2+  0.2+    230330 H21  0.3-  0.6+
    230329 G96  0.0   0.0     230329 I52  0.1+  0.3+    230330 H21  0.0   0.2+
    230329 I52  0.0   0.2+    230329 L01  0.1+  0.4-    230330 H21  0.2-  0.1+
    230329 I52  0.1+  0.0     230329 L01  0.3-  0.5+    230330 H21  0.4-  0.4+
    
    Ephemeris:
    2023 FP13                a,e,i = 1.73, 0.53, 4                   q = 0.8169
    Date    TT    R. A. (2000) Decl.     Delta      r    Elong.  Phase     V
    2023 03 02    11 42 02.1 -00 02 16   0.2351  1.2193   164.8    12.3    23.2
    ...
    2023 03 17    11 59 04.8 +05 05 23   0.1046  1.0990   175.0     4.5    20.8
    ...
    2023 03 25    12 45 49.0 +19 33 55   0.04365 1.0375   157.5    21.6    19.5
    ...
    2023 03 31    19 36 05.4 +49 04 43   0.02438 0.9936    77.2   101.4    20.8
    2023 04 01    20 49 37.0 +41 55 47   0.02848 0.9865    63.3   115.2    21.9
    2023 04 02    21 31 37.1 +35 20 38   0.03394 0.9795    53.7   124.7    23.0
    ...
    2023 04 08    22 47 14.6 +17 37 50   0.07648 0.9395    35.2   142.1    26.6
    ...
    2023 04 16    23 10 56.8 +11 29 10   0.1401  0.8925    35.2   139.6    27.4
    ...
    2023 05 01    23 35 41.1 +08 21 59   0.2695  0.8318    43.3   123.9    27.1
    
    M. P. C. Staff               (C) Copyright 2023 MPC           M.P.E.C. 2023-G03
    


    Read MPEC 2023-G02 Read MPEC 2023-G04


    MPEC number:

    Enter an MPEC number in one of the following forms:

    • 1997-B01 (the full form)
    • J97B01 (the packed version of the full form)
    • B01 (the abbreviated form)